Aérodrome :
LOGIN :

S'inscrire | Disclaimer

   EN    FR    IT 

 










Légende :    VFR   VFR Marginal   IFR   IFR Intensif   IFR Très Intensif
Visi : 
Plafond : 
>= 8 km
>= 3000ft
5 à 8 km
1000 à 3000 ft
1500m à 5 km
500 à 1000 ft
800 à 1500m
200 à 500 ft
< 800m
< 200 ft
Symboles :   Orages  Brouillard  Fortes neiges  Fortes précipitations  Vent > 20 kt
SIGMETs :   Divers  Orages  Givrage  Turbulence  Onde Orograph.  Cendres Volcan.







- Altitude de l'aérodrome : 187 ft


LPMR - Monte Real Air Base

DERNIER METAR :
  • 240400Z VRB01KT CAVOK 13/04 Q1020

METARs EXPIRÉS :
  • 240300Z VRB01KT CAVOK 11/04 Q1020
  • 240200Z 13003KT CAVOK 12/04 Q1020

TAF TAF LPMR
Valide du 24 à 00h jusqu'au 25 à 00h UTC


232301Z 2400/2424 03008KT CAVOK
BECMG 2401/2403 10010KT
TEMPO 2402/2409 11012G22KT
BECMG 2414/2417 36005KT
BECMG 2420/2422 18005KT
Pas de NOTAMs connus pour ce terrain.



MET'MAP, la Météo Aéronautique d'un coup d'oeil ! - Copyright ORBIFLY Décembre 2007 - Disclaimer

ORBIFLY MET'MAP TEAM :

Programmation & Développement : Alexandra Zaïnal
Conception & Développement : Baudouin d'Aumeries
Co-Programmation & Développement : Marc-Olivier Méhu
Soutien technique & logistique : Manuel Goepfert

Contact : metmap@orbifly.com




SOURCES & CREDITS :

   NOAA